Regional Weather Roundup
Issued by NWS

Home | Current Version | Previous Version | Graphics & Text | Print | Product List | Glossary On
Versions: 1 2 3 4 5 6 7 8 9 10 11 12 13 14 15 16 17 18 19 20 21 22 23 24 25 26 27 28 29 30 31 32 33 34 35 36 37 38 39 40 41 42 43 44 45 46 47 48 49 50
000
ASUS43 KLOT 080321
RWRIL

ILLINOIS REGIONAL WEATHER ROUNDUP
NATIONAL WEATHER SERVICE CHICAGO/ROMEOVILLE IL
1000 PM CDT TUE JUL 07 2015

NOTE: "FAIR" INDICATES FEW OR NO CLOUDS BELOW 12,000 FEET WITH NO
SIGNIFICANT WEATHER AND/OR OBSTRUCTIONS TO VISIBILITY.

* THESE STATIONS ARE NOT UNDER NWS QUALITY CONTROL. THEY ALSO MAY NOT
  REPORT WEATHER SUCH AS PRECIPITATION OR FOG.

ILZ001-002-007-009-015-016-024-080400-
NORTHWEST ILLINOIS

CITY           SKY/WX    TMP DP  RH WIND       PRES   REMARKS
MOLINE         MOCLDY    64  56  75 CALM      30.08R
STERLING*      CLOUDY    64  54  68 NE6       30.10R
SAVANNA*       MOCLDY    62  53  73 NE5       30.10R
$$

ILZ003-004-008-010-011-017-018-080400-
NORTH CENTRAL ILLINOIS

CITY           SKY/WX    TMP DP  RH WIND       PRES   REMARKS
ROCKFORD       MOCLDY    60  51  72 E7        30.12R
FREEPORT*      PTCLDY    57  53  88 NE3       30.12R
ROCHELLE*      MOCLDY    58  53  82 CALM      30.12R
DE KALB*       PTCLDY    54  50  87 NE3       30.12R
PERU*          PTCLDY    61  52  71 E8        30.10R
$$

ILZ005-006-012>014-019>023-080400-
NORTHEAST ILLINOIS

CITY           SKY/WX    TMP DP  RH WIND       PRES   REMARKS
CHICAGO-OHARE  MOCLDY    57  46  66 N7        30.10R
CHICAGO-MIDWAY MOCLDY    60  46  59 N9        30.10R
AURORA         PTCLDY    58  49  72 E5        30.11R
LANSING*       PTCLDY    58  47  67 N6        30.11R
JOLIET*        PTCLDY    59  50  72 NE5       30.11R
WAUKEGAN       CLEAR     51  49  92 CALM      30.10R
DUPAGE AIRPORT PTCLDY    56  47  71 NE5       30.11R
KANKAKEE*      MOCLDY    58  50  75 N6        30.10R
WHEELING       PTCLDY    55  46  71 N6        30.12R
MORRIS*        PTCLDY    58  52  80 CALM      30.08R
ROMEOVILLE*    PTCLDY    56  47  72 NE6       30.11R
NORTHERLY ISL    N/A     58  48  69 MISG        N/A
$$

LMZ740>746-080400-
SOUTHERN LAKE MICHIGAN

STATION/POSITION SKY/WX   TEMP    WIND        PRES    VSBY  WAVE
                          AIR SEA DIR/SP/G                  HT/PER
                          (F)     (DEG/KT/KT) (MB)    (MI)  (FT/S)
HARRISON CRIB              58     350/ 13/ 16   N/A
BURNHAM HARBOR             58     340/  8/ 12   N/A
CALUMET HARBOR             59     350/  7/ 11   N/A
BURNS HARBOR               62      20/ 14/ 18 1018.6R
MICHIGAN CITY              61     350/ 23/ 25   N/A
MICHIGAN CITY 6N           61 65   20/ 16/ 21   N/A           8/ 7
ST. JOSEPH                 60 62   50/ 17/ 19   N/A           7/ 2
$$

ILZ025>027-034>036-040-047-049-050-058-095>099-080400-
WEST-CENTRAL ILLINOIS

CITY           SKY/WX    TMP DP  RH WIND       PRES   REMARKS
QUINCY         CLOUDY    68  63  84 E3        30.06R HAZE
GALESBURG*     MOCLDY    60  56  89 NE3       30.09R
MACOMB*        MOCLDY    63  61  91 NE5       30.10R
JACKSONVILLE*  CLOUDY    67  63  86 CALM      30.07R
PITTSFIELD*    CLOUDY    67  64  87 CALM      30.08R
$$

ILZ028>032-037-038-041>044-048-051>054-059>061-080400-
CENTRAL ILLINOIS

CITY           SKY/WX    TMP DP  RH WIND       PRES   REMARKS
PONTIAC        MOCLDY    59  54  83 E7        30.11R
BLOOMINGTON    MOCLDY    60  56  87 E8        30.11R
DECATUR        CLOUDY    63  56  78 NE7       30.08R
PEORIA         MOCLDY    65  58  78 CALM      30.08R
LACON*         MOCLDY    60  56  87 CALM      30.08R
LINCOLN*       MOCLDY    63  58  82 E3        30.09R
SPRINGFIELD    CLOUDY    68  60  75 E7        30.07R
TAYLORVILLE    CLOUDY    64  54  68 NE6       30.07R
$$

ILZ033-039-045-046-055>057-062-063-080400-
EAST-CENTRAL ILLINOIS

CITY           SKY/WX    TMP DP  RH WIND       PRES   REMARKS
CHAMPAIGN      MOCLDY    61  54  77 NE5       30.08R
DANVILLE*      PTCLDY    56  54  91 N5        30.06R
RANTOUL*       PTCLDY    62  54  73 NE5       30.09R
MATTOON        CLOUDY    64  53  67 NE13      30.06R
PARIS*         CLOUDY    64  55  73 N5        30.08R
$$

ILZ079-100>102-080400-
SOUTHWEST ILLINOIS

CITY           SKY/WX    TMP DP  RH WIND       PRES   REMARKS
ALTON          CLOUDY    66 N/A N/A NE6       30.04S
BELLEVILLE     CLOUDY    66  65  98 E5        30.05R
CAHOKIA*       LGT RAIN  67  63  87 CALM      30.08R FOG
SPARTA*        DRIZZLE   65  64  96 N5        30.07R
$$

ILZ064>066-069>071-074>076-080>082-084>086-088>090-092>094-080400-
SOUTH-CENTRAL ILLINOIS

CITY           SKY/WX    TMP DP  RH WIND       PRES   REMARKS
CARBONDALE     RAIN      71  69  93 NE6       30.03R FOG
CAIRO*         CLOUDY    73  71  95 SW5       30.03S
EFFINGHAM*     CLOUDY    66  56  70 CALM      30.08R
MARION         LGT RAIN  70  70 100 N6        30.04R
MT. VERNON     CLOUDY    64  61  88 N5        30.06R
CENTRALIA*     CLOUDY    66  59  78 CALM      30.05R
SALEM*         CLOUDY    68  59  74 NE6       30.06R
$$

ILZ067-068-072-073-078-083-087-091-080400-
SOUTHEAST ILLINOIS

CITY           SKY/WX    TMP DP  RH WIND       PRES   REMARKS
LAWRENCEVILLE  CLOUDY    66  64  93 N7        30.05R
FLORA*         CLOUDY    66  59  79 N8        30.06R
FAIRFIELD*     CLOUDY    66  63  91 N7        30.04R
HARRISBURG*    RAIN      68  68 100 CALM      30.06R
ROBINSON*      CLOUDY    65  59  80 NE7       30.06R
CARMI*         LGT RAIN  68  63  83 N6        30.03R
$$

ABBREVIATIONS USED IN REMARKS
   TC - TEMPERATURE IN CELSIUS
  WCI - WIND CHILL INDEX
   HX - HEAT INDEX
  VSB - VISIBILITY
$$




USA.gov is the U.S. government's official web portal to all federal, state and local government web resources and services.